Volver al catálogo

ARIANE 5 R/B

ActivoHEO
NORAD 32295·ROCKET BODY·🇫🇷 France

Lanzado Nov 14, 2007 desde Guiana Space Centre

Loading…

Próximos Pases (próximas 24 horas)

TLE

ActualizadoSource: Space-Track

Época: Sep 14, 2026, 15:14 UTC

1 32295U 07056C   26257.63511371  .00007266  00000-0  67187-3 0  9991
2 32295   5.9699 117.8452 6709054 283.4035  14.6139  3.05779748177330

Sigue ARIANE 5 R/B en tiempo real con AllMySat

Download on the App Store